TimeCDT,TemperatureF,Dew PointF,Humidity,Sea Level PressureIn,VisibilityMPH,Wind Direction,Wind SpeedMPH,Gust SpeedMPH,PrecipitationIn,Events,Conditions,WindDirDegrees,DateUTC
12:15 AM,28.4,26.6,93,30.14,10.0,Calm,Calm,-,N/A,,Clear,0,2012-10-10 05:15:00
12:55 AM,28.4,26.6,93,30.15,10.0,Calm,Calm,-,N/A,,Clear,0,2012-10-10 05:55:00
1:15 AM,28.4,26.6,93,30.15,10.0,Calm,Calm,-,N/A,,Clear,0,2012-10-10 06:15:00
1:35 AM,26.6,24.8,93,30.16,10.0,Calm,Calm,-,N/A,,Clear,0,2012-10-10 06:35:00
1:55 AM,26.6,26.6,100,30.16,10.0,Calm,Calm,-,N/A,,Clear,0,2012-10-10 06:55:00
2:15 AM,28.4,26.6,93,30.16,10.0,Calm,Calm,-,N/A,,Clear,0,2012-10-10 07:15:00
2:35 AM,26.6,24.8,93,30.17,10.0,Calm,Calm,-,N/A,,Clear,0,2012-10-10 07:35:00
2:55 AM,26.6,24.8,93,30.17,10.0,Calm,Calm,-,N/A,,Clear,0,2012-10-10 07:55:00
3:15 AM,26.6,24.8,93,30.17,10.0,Calm,Calm,-,N/A,,Clear,0,2012-10-10 08:15:00
3:35 AM,26.6,24.8,93,30.17,10.0,Calm,Calm,-,N/A,,Clear,0,2012-10-10 08:35:00
3:55 AM,26.6,24.8,93,30.17,10.0,Calm,Calm,-,N/A,,Clear,0,2012-10-10 08:55:00
4:15 AM,26.6,24.8,93,30.17,10.0,Calm,Calm,-,N/A,,Clear,0,2012-10-10 09:15:00
4:35 AM,26.6,24.8,93,30.18,10.0,Calm,Calm,-,N/A,,Clear,0,2012-10-10 09:35:00
4:55 AM,24.8,24.8,100,30.18,10.0,Calm,Calm,-,N/A,,Clear,0,2012-10-10 09:55:00
5:15 AM,26.6,24.8,93,30.18,10.0,Calm,Calm,-,N/A,,Clear,0,2012-10-10 10:15:00
5:35 AM,26.6,24.8,93,30.19,10.0,Calm,Calm,-,N/A,,Clear,0,2012-10-10 10:35:00
5:55 AM,26.6,24.8,93,30.19,10.0,Calm,Calm,-,N/A,,Clear,0,2012-10-10 10:55:00
6:15 AM,28.4,26.6,93,30.20,10.0,Calm,Calm,-,N/A,,Clear,0,2012-10-10 11:15:00
6:35 AM,28.4,26.6,93,30.21,10.0,Calm,Calm,-,N/A,,Clear,0,2012-10-10 11:35:00
6:55 AM,28.4,26.6,93,30.21,10.0,Calm,Calm,-,N/A,,Clear,0,2012-10-10 11:55:00
7:15 AM,28.4,26.6,93,30.22,10.0,Calm,Calm,-,N/A,,Clear,0,2012-10-10 12:15:00
7:35 AM,28.4,26.6,93,30.23,10.0,Calm,Calm,-,N/A,,Clear,0,2012-10-10 12:35:00
7:55 AM,28.4,26.6,93,30.23,10.0,Calm,Calm,-,N/A,,Clear,0,2012-10-10 12:55:00
8:15 AM,30.2,28.4,93,30.24,10.0,Calm,Calm,-,N/A,,Clear,0,2012-10-10 13:15:00
8:35 AM,33.8,30.2,87,30.24,10.0,Calm,Calm,-,N/A,,Clear,0,2012-10-10 13:35:00
8:55 AM,37.4,32.0,81,30.25,10.0,Calm,Calm,-,N/A,,Clear,0,2012-10-10 13:55:00
9:15 AM,42.8,33.8,70,30.25,10.0,Calm,Calm,-,N/A,,Clear,0,2012-10-10 14:15:00
9:35 AM,46.4,33.8,62,30.25,10.0,West,5.8,-,N/A,,Clear,260,2012-10-10 14:35:00
9:55 AM,50.0,33.8,54,30.25,10.0,WSW,9.2,-,N/A,,Clear,250,2012-10-10 14:55:00
10:15 AM,51.8,32.0,47,30.25,10.0,West,8.1,-,N/A,,Clear,270,2012-10-10 15:15:00
10:35 AM,53.6,30.2,41,30.25,10.0,WSW,8.1,-,N/A,,Clear,250,2012-10-10 15:35:00
10:55 AM,53.6,30.2,41,30.25,10.0,WSW,6.9,-,N/A,,Clear,250,2012-10-10 15:55:00
11:15 AM,55.4,30.2,38,30.25,10.0,West,9.2,-,N/A,,Clear,260,2012-10-10 16:15:00
11:35 AM,55.4,28.4,36,30.25,10.0,WSW,5.8,-,N/A,,Clear,240,2012-10-10 16:35:00
11:55 AM,57.2,26.6,31,30.24,10.0,Calm,Calm,-,N/A,,Clear,0,2012-10-10 16:55:00
12:15 PM,57.2,24.8,29,30.24,10.0,NW,4.6,-,N/A,,Clear,310,2012-10-10 17:15:00
12:35 PM,59.0,24.8,27,30.23,10.0,Calm,Calm,-,N/A,,Clear,0,2012-10-10 17:35:00
12:55 PM,59.0,24.8,27,30.22,10.0,West,4.6,-,N/A,,Clear,270,2012-10-10 17:55:00
1:15 PM,60.8,24.8,25,30.22,10.0,West,3.5,-,N/A,,Clear,260,2012-10-10 18:15:00
1:35 PM,60.8,24.8,25,30.21,10.0,WSW,3.5,-,N/A,,Clear,250,2012-10-10 18:35:00
1:55 PM,60.8,24.8,25,30.19,10.0,West,6.9,-,N/A,,Clear,260,2012-10-10 18:55:00
2:15 PM,60.8,24.8,25,30.18,10.0,SW,9.2,-,N/A,,Clear,230,2012-10-10 19:15:00
2:35 PM,62.6,24.8,24,30.17,10.0,Calm,Calm,-,N/A,,Clear,0,2012-10-10 19:35:00
2:55 PM,62.6,24.8,24,30.17,10.0,West,5.8,-,N/A,,Clear,260,2012-10-10 19:55:00
3:15 PM,62.6,24.8,24,30.16,10.0,West,3.5,-,N/A,,Clear,260,2012-10-10 20:15:00
3:35 PM,64.4,26.6,24,30.15,10.0,WSW,6.9,-,N/A,,Clear,240,2012-10-10 20:35:00
3:55 PM,64.4,26.6,24,30.14,10.0,WSW,9.2,-,N/A,,Clear,250,2012-10-10 20:55:00
4:15 PM,64.4,26.6,24,30.13,10.0,SW,8.1,-,N/A,,Clear,220,2012-10-10 21:15:00
4:35 PM,64.4,24.8,22,30.12,10.0,SW,6.9,-,N/A,,Clear,220,2012-10-10 21:35:00
4:55 PM,64.4,26.6,24,30.11,10.0,SW,4.6,-,N/A,,Clear,220,2012-10-10 21:55:00
5:15 PM,64.4,26.6,24,30.10,10.0,SW,4.6,-,N/A,,Clear,220,2012-10-10 22:15:00
5:35 PM,64.4,26.6,24,30.10,10.0,SW,9.2,-,N/A,,Clear,220,2012-10-10 22:35:00
5:55 PM,62.6,26.6,26,30.10,10.0,SSW,9.2,-,N/A,,Clear,200,2012-10-10 22:55:00
6:15 PM,60.8,26.6,27,30.09,10.0,South,6.9,-,N/A,,Clear,190,2012-10-10 23:15:00
6:35 PM,57.2,28.4,33,30.09,10.0,South,4.6,-,N/A,,Clear,180,2012-10-10 23:35:00
6:55 PM,53.6,28.4,38,30.09,10.0,South,4.6,-,N/A,,Clear,170,2012-10-10 23:55:00
7:15 PM,51.8,28.4,41,30.09,10.0,South,3.5,-,N/A,,Clear,180,2012-10-11 00:15:00
7:35 PM,48.2,30.2,50,30.09,10.0,South,3.5,-,N/A,,Clear,190,2012-10-11 00:35:00
7:55 PM,44.6,30.2,57,30.10,10.0,Calm,Calm,-,N/A,,Clear,0,2012-10-11 00:55:00
8:15 PM,41.0,30.2,65,30.10,10.0,Calm,Calm,-,N/A,,Clear,0,2012-10-11 01:15:00
8:35 PM,39.2,30.2,70,30.10,10.0,Calm,Calm,-,N/A,,Clear,0,2012-10-11 01:35:00
8:55 PM,39.2,30.2,70,30.10,10.0,Calm,Calm,-,N/A,,Clear,0,2012-10-11 01:55:00
9:15 PM,39.2,30.2,70,30.10,10.0,Calm,Calm,-,N/A,,Clear,0,2012-10-11 02:15:00
9:35 PM,37.4,30.2,75,30.10,10.0,Calm,Calm,-,N/A,,Clear,0,2012-10-11 02:35:00
9:55 PM,37.4,30.2,75,30.10,10.0,Calm,Calm,-,N/A,,Clear,0,2012-10-11 02:55:00
10:15 PM,37.4,30.2,75,30.10,10.0,Calm,Calm,-,N/A,,Clear,0,2012-10-11 03:15:00
10:35 PM,39.2,30.2,70,30.10,10.0,Calm,Calm,-,N/A,,Clear,0,2012-10-11 03:35:00
10:55 PM,39.2,30.2,70,30.10,10.0,Calm,Calm,-,N/A,,Clear,0,2012-10-11 03:55:00
11:15 PM,39.2,30.2,70,30.10,10.0,South,3.5,-,N/A,,Clear,170,2012-10-11 04:15:00
11:35 PM,39.2,30.2,70,30.10,10.0,South,3.5,-,N/A,,Clear,190,2012-10-11 04:35:00
11:55 PM,39.2,30.2,70,30.10,10.0,South,3.5,-,N/A,,Clear,190,2012-10-11 04:55:00